Simultaneous Nadir Overpasses (SNOs) Predictions

Prediction of SNOs between LANDSAT-8 and METOP-B Satellite Orbit:

Table of predicted SNOs for the next 14.0 days since TLE Epoch: 8/26/2023
Index Date (LANDSAT-8) Time (LANDSAT-8) Lat,Lon (LANDSAT-8) SZA (LANDSAT-8 ) Date (METOP-B) Time (METOP-B) Lat,Lon (METOP-B) SZA (METOP-B ) Distance(km) Time Diff (sec)
1 08/28/2023 04:19:44 81.23, 156.86 73.65 08/28/2023 04:19:23 81.23, 157.02 73.65 2.68 21
2 08/28/2023 05:09:11 -81.23, -35.57 106.36 08/28/2023 05:10:04 -81.23, -35.73 106.35 2.80 53
3 08/30/2023 23:53:59 81.23,-136.72 74.66 08/30/2023 23:53:43 81.23,-136.60 74.67 2.03 16
4 08/31/2023 00:43:25 -81.25, 31.25 105.28 08/31/2023 00:44:22 -81.25, 31.45 105.24 3.27 57
5 09/02/2023 19:28:14 81.22, -70.48 75.67 09/02/2023 19:28:04 81.22, -70.67 75.64 3.25 10
6 09/02/2023 20:17:40 -81.24, 97.51 104.27 09/02/2023 20:18:43 -81.24, 97.40 104.26 1.94 63
7 09/05/2023 15:02:27 81.22, -4.04 76.72 09/05/2023 15:02:22 81.22, -4.04 76.73 0.63 5
8 09/05/2023 15:51:53 -81.24, 163.97 103.22 09/05/2023 15:53:01 -81.24, 164.05 103.17 1.55 68
9 09/08/2023 09:47:15 -81.21,-105.42 102.25 09/08/2023 09:46:02 -81.21,-105.37 102.27 1.13 73
10 09/08/2023 10:36:40 81.23, 62.58 77.82 09/08/2023 10:36:41 81.23, 62.52 77.81 1.05 1



Historial Predications of SNOs between LANDSAT-8 and METOP-B
